Location: Karcze
(52.0945°N, 22.4786°E)
Time: 23:12:27
(UTC+00:00)

Transit 4A - Pass Details

Date: 28 July 2021
Orbit: 871 x 974 km, 66.8° (Epoch: 18 September)

Event Time Altitude Azimuth Distance (km) Brightness Sun altitude
Exits shadow 01:29:59 - 257° (WSW) 2,946 10.0 -9.6°
Reaches altitude 10° 01:31:12 10° 262° (W) 2,534 9.7 -9.4°
Maximum altitude 01:36:30 34° 327° (NNW) 1,399 9.0 -8.9°
Drops below altitude 10° 01:41:47 10° 32° (NNE) 2,530 11.8 -8.3°
Sets 01:44:31 0° 42° (NE) 3,474 13.5 -8.1°
